This is the latest recevied weather packets stored in our database for station/object KC1DMA. If no packets are shown the sender has not sent any weather packets the latest 10 day(s).
| Time | Temp. | Humidity | Pressure | Rain* | Wind** | Luminosity | Snow |
|---|---|---|---|---|---|---|---|
| 1778065210 | 13.89° C | 91% | 1012.3 hPa | - | - | 64 W/m² | - |
| 1778064906 | 13.89° C | 91% | 1012.4 hPa | - | - | 70 W/m² | - |
| 1778064603 | 13.89° C | 91% | 1012.3 hPa | - | - | 50 W/m² | - |
| 1778064301 | 13.33° C | 92% | 1012.2 hPa | - | - | 52 W/m² | - |
| 1778063999 | 13.33° C | 92% | 1012.5 hPa | - | - | 52 W/m² | - |
| 1778063696 | 13.33° C | 92% | 1012.3 hPa | - | - | 53 W/m² | - |
| 1778063393 | 13.33° C | 92% | 1012.4 hPa | - | - | 51 W/m² | - |
| 1778063091 | 13.33° C | 92% | 1012.3 hPa | - | - | 45 W/m² | - |
| 1778062788 | 12.78° C | 92% | 1012.4 hPa | - | - | 31 W/m² | - |
| 1778062484 | 12.78° C | 92% | 1012.2 hPa | - | - | 19 W/m² | - |
| 1778062182 | 12.78° C | 92% | 1012.3 hPa | - | - | 14 W/m² | - |
| 1778061880 | 12.78° C | 92% | 1012.3 hPa | - | - | 11 W/m² | - |
| 1778061577 | 12.78° C | 92% | 1012.2 hPa | - | - | 8 W/m² | - |
| 1778061276 | 12.78° C | 92% | 1012.3 hPa | - | - | 6 W/m² | - |
| 1778060972 | 13.33° C | 92% | 1012.1 hPa | - | - | 4 W/m² | - |
| 1778060671 | 13.33° C | 91% | 1012.1 hPa | - | - | 3 W/m² | - |
| 1778060368 | 13.33° C | 91% | 1012.1 hPa | - | - | 2 W/m² | - |
| 1778060066 | 13.33° C | 91% | 1012.2 hPa | - | - | 1 W/m² | - |
| 1778059763 | 13.33° C | 91% | 1012.3 hPa | - | - | 0 W/m² | - |
| 1778059461 | 13.33° C | 91% | 1012.4 hPa | - | - | 0 W/m² | - |
| 1778059157 | 13.33° C | 91% | 1012.1 hPa | - | - | 0 W/m² | - |
| 1778058855 | 13.33° C | 90% | 1012.1 hPa | - | - | 0 W/m² | - |
| 1778058552 | 13.33° C | 90% | 1012.4 hPa | - | - | 0 W/m² | - |
| 1778058250 | 13.33° C | 90% | 1012.3 hPa | - | - | 0 W/m² | - |
| 1778057946 | 13.33° C | 90% | 1012.3 hPa | - | - | 0 W/m² | - |
* Rain since midnight (hover to see other rain measurements)
** Current wind speed in m/s (hover to see current wind gust speed)